This is the latest recevied weather packets stored in our database for station/object OE3PDB-3. If no packets are shown the sender has not sent any weather packets the latest 10 day(s).
| Time | Temp. | Humidity | Pressure | Rain* | Wind** | Luminosity | Snow |
|---|---|---|---|---|---|---|---|
| 1777479052 | 15° C | 31% | 1021.9 hPa | 0 mm | - | - | - |
| 1777478452 | 15.56° C | 30% | 1021.8 hPa | 0 mm | - | - | - |
| 1777477852 | 16.67° C | 28% | 1021.7 hPa | 0 mm | - | - | - |
| 1777477252 | 17.78° C | 26% | 1021.6 hPa | 0 mm | - | - | - |
| 1777476652 | 19.44° C | 24% | 1021.4 hPa | 0 mm | - | - | - |
| 1777476052 | 19.44° C | 25% | 1021.5 hPa | 0 mm | - | - | - |
| 1777475452 | 19.44° C | 25% | 1021.5 hPa | 0 mm | - | - | - |
| 1777474852 | 19.44° C | 25% | 1021.6 hPa | 0 mm | - | - | - |
| 1777474252 | 19.44° C | 25% | 1021.6 hPa | 0 mm | - | - | - |
| 1777473652 | 19.44° C | 25% | 1021.7 hPa | 0 mm | - | - | - |
| 1777473052 | 20° C | 25% | 1021.7 hPa | 0 mm | - | - | - |
| 1777472452 | 19.44° C | 25% | 1021.7 hPa | 0 mm | - | - | - |
| 1777471852 | 18.89° C | 25% | 1021.7 hPa | 0 mm | - | - | - |
| 1777471252 | 18.89° C | 25% | 1021.7 hPa | 0 mm | - | - | - |
| 1777470652 | 18.89° C | 25% | 1021.8 hPa | 0 mm | - | - | - |
| 1777470052 | 18.89° C | 25% | 1021.7 hPa | 0 mm | - | - | - |
| 1777469452 | 18.89° C | 25% | 1021.9 hPa | 0 mm | - | - | - |
| 1777468852 | 17.78° C | 25% | 1021.8 hPa | 0 mm | - | - | - |
| 1777468252 | 18.33° C | 26% | 1021.9 hPa | 0 mm | - | - | - |
| 1777467652 | 17.78° C | 26% | 1021.9 hPa | 0 mm | - | - | - |
| 1777467052 | 17.22° C | 27% | 1021.9 hPa | 0 mm | - | - | - |
| 1777466452 | 16.67° C | 27% | 1022 hPa | 0 mm | - | - | - |
| 1777465853 | 16.67° C | 28% | 1022 hPa | 0 mm | - | - | - |
| 1777465253 | 15.56° C | 29% | 1021.9 hPa | 0 mm | - | - | - |
| 1777464652 | 15.56° C | 29% | 1022 hPa | 0 mm | - | - | - |
* Rain latest hour (hover to see other rain measurements)
** Current wind speed in m/s (hover to see current wind gust speed)